Regional Weather Roundup
Issued by NWS Cleveland, OH

Home | Current Version | Previous Version | Text Only | Print | Product List | Glossary Off
Versions: 1 2 3 4 5 6 7 8 9 10 11 12 13 14 15 16 17 18 19 20 21 22 23 24 25 26 27 28 29 30 31 32 33 34 35 36 37 38 39 40 41 42 43 44 45 46 47 48 49 50

000
ASUS41 KCLE 011810
RWRCLE
OHIO REGIONAL WEATHER ROUNDUP
NATIONAL WEATHER SERVICE WILMINGTON, OH
200 PM EDT WED OCT 01 2014

NOTE: "FAIR" INDICATES FEW OR NO CLOUDS BELOW 12,000 FEET WITH NO
SIGNIFICANT WEATHER AND/OR OBSTRUCTIONS TO VISIBILITY.

OHZ001>008-015>018-024>027-034-035-043-044-011900-
   NORTHWEST OHIO

CITY           SKY/WX    TMP DP  RH WIND       PRES   REMARKS
DEFIANCE       CLOUDY    63  49  60 E7        30.06F
FINDLAY        CLOUDY    66  50  56 S3        30.04F
TOLEDO EXPRESS CLOUDY    63  51  65 W5        30.06S
TOLEDO METCALF PTSUNNY   66  51  58 SE3       30.06F
LIMA           CLOUDY    67  49  52 VRB7      30.04F
$$

OHZ009>014-019>023-028>033-038-089-011900-
   NORTHEAST OHIO

CITY           SKY/WX    TMP DP  RH WIND       PRES   REMARKS
CLE-HOPKINS    PTSUNNY   66  57  72 VRB7      30.05F
CLE-LAKEFRONT  PTSUNNY   66  59  78 NW7       30.03F
CUY CO. ARPT   PTSUNNY   66  63  88 N8        30.04F
LORAIN-ELYRIA  CLOUDY    68  56  65 CALM      30.05S
ASHTABULA      MOSUNNY   70  56  61 SE5       30.04F
AKRON-CANTON   CLOUDY    63  55  75 VRB3      30.04F
WOOSTER        CLOUDY    65  55  70 SE6       30.05F
MANSFIELD      MOSUNNY   64  53  67 SE6       30.05F
YOUNGSTOWN     PTSUNNY   62  56  80 CALM      30.04F
$$

OHZ042-051>053-060>062-070>072-077>081-011900-
  SOUTHWEST OHIO

CITY           SKY/WX    TMP DP  RH WIND       PRES   REMARKS
CINC-COVINGTON MOSUNNY   73  52  47 CALM      30.02F
CINC-LUNKEN    SUNNY     72  54  53 NE3       30.02F
HAMILTON       SUNNY     66  52  60 VRB6      30.05F
DAYTON         PTSUNNY   60  52  74 CALM      30.06F
WRIGHT-PAT AFB CLOUDY    59  53  80 VRB5      30.05F
DAYTON GENERAL PTSUNNY   58  53  84 E7        30.05F
WILMINGTON     MOSUNNY   61  51  70 VRB6      30.05F
$$

OHZ036-037-039>041-045>050-054>059-063>069-073>076-082>088-011900-
  CENTRAL AND SOUTHEAST OHIO

CITY           SKY/WX    TMP DP  RH WIND       PRES   REMARKS
COLUMBUS       PTSUNNY   65  49  56 NE5       30.03F
OSU AIRPORT    MOSUNNY   65  49  56 CALM      30.04F
BOLTON FIELD   PTSUNNY   63  52  67 MISG      30.05F
RICKENBACK AFB MOSUNNY   65  50  58 CALM      30.03F
NEWARK         CLOUDY    61  53  75 VRB3      30.05F
MARION         CLOUDY    67  51  56 SW5       30.04F
LANCASTER      PTSUNNY   66  50  56 CALM      30.04F
ZANESVILLE     CLOUDY    64  52  64 W3        30.03F
NEW PHILLY     CLOUDY    62  56  80 W3        30.04F
$$


USA.gov is the U.S. government's official web portal to all federal, state and local government web resources and services.